Wind_Speed
11 11 11 11 11 11 10 10 9 8 7 7 7 6 7 6 6 6 5 4 4 4 4 4 3 3 2 3 3 4 3 3 4 4 4 5 5 5 6 6 7 7 8
10 10 10 10 10 10 10 10 9 8 8 7 7 6 6 6 6 5 4 4 4 4 3 3 3 3 3 3 4 3 3 3 3 3 4 4 5 5 5 6 7 7 8
7 8 9 9 9 9 9 9 9 8 8 8 7 6 5 5 4 4 3 3 3 3 2 2 2 3 3 2 2 3 3 3 3 4 4 4 4 5 6 6 6 7 7
6 6 7 7 8 8 8 8 8 8 7 7 7 6 6 5 4 3 3 3 3 2 3 3 3 2 2 2 1 1 2 3 3 4 4 4 5 5 6 6 7 7 8
4 4 4 5 6 6 6 7 7 7 7 6 6 6 5 4 3 3 3 2 2 1 2 2 2 2 2 2 2 3 3 3 4 4 4 4 5 6 6 7 7 8 9
3 3 3 3 4 4 5 5 5 5 5 5 5 4 4 3 2 1 1 1 1 1 1 2 1 2 2 3 3 3 4 4 5 5 5 6 6 6 6 7 8 9 10
4 3 2 3 3 3 4 4 4 3 3 3 3 3 3 3 1 0 1 1 2 2 2 3 3 3 4 4 4 4 4 5 5 6 6 6 6 7 7 8 9 9 10
5 5 3 3 3 3 3 4 3 2 2 3 3 3 3 3 2 1 2 2 2 3 4 5 5 4 4 5 5 5 5 5 6 7 7 7 8 8 9 10 10 10 11
8 7 6 5 5 5 4 4 3 3 3 3 3 2 2 2 2 2 3 3 3 4 5 6 6 6 6 6 6 7 7 8 8 9 9 10 10 10 11 12 12 12 12
11 10 7 7 7 7 5 4 4 4 4 4 4 4 4 4 4 4 4 4 5 5 6 7 8 8 8 8 9 9 10 11 11 11 11 12 12 13 13 14 14 15 14
11 10 9 9 9 9 7 6 6 6 6 6 6 6 6 6 7 7 7 7 8 8 9 9 10 10 11 11 12 12 12 12 13 13 13 14 14 15 15 16 16 16 16
12 12 11 11 11 11 10 9 9 9 9 9 9 9 8 9 9 9 9 9 10 10 11 12 12 13 13 13 14 14 14 14 14 14 15 15 16 17 17 17 17 18 18
15 14 14 14 13 13 12 12 12 11 12 11 11 11 11 12 12 12 12 12 12 12 12 12 13 14 14 15 16 17 17 16 16 17 17 17 18 19 19 19 20 20 20
15 16 16 16 15 15 14 13 13 13 14 13 13 14 14 14 14 14 14 14 14 14 13 14 15 16 17 17 17 18 18 19 19 19 19 20 20 20 21 21 22 22 22
17 17 18 18 18 17 16 15 15 15 16 16 15 16 16 16 16 16 16 17 17 17 18 18 18 18 19 20 20 20 21 21 21 22 22 22 23 23 23 23 22 23 23
20 19 20 20 20 19 18 18 18 18 18 18 19 19 19 18 18 19 19 20 20 20 21 21 21 21 21 21 22 22 23 23 23 24 24 25 25 25 25 26 26 26 26
22 22 22 22 22 21 21 20 21 21 21 21 21 21 22 22 22 22 22 23 23 24 24 24 23 23 23 24 24 25 25 26 26 26 26 27 28 28 28 28 29 29 28
23 23 23 24 24 24 24 23 23 23 23 24 23 23 23 23 24 25 25 26 26 26 26 27 26 26 26 27 27 27 27 27 28 28 28 29 30 30 30 31 31 30 30
25 25 25 26 26 24 24 25 24 24 24 24 23 24 24 25 25 26 27 27 27 28 28 29 29 29 30 30 30 30 30 31 31 31 31 32 32 32 33 33 33 33 32
27 26 26 26 26 25 25 25 26 26 26 26 25 25 25 25 26 26 27 28 29 30 30 31 31 31 32 32 32 33 33 33 34 34 34 35 35 36 36 36 36 35 34
28 28 27 27 27 26 26 27 28 28 28 28 26 26 27 27 27 28 28 29 30 31 31 32 31 32 33 33 34 35 35 35 35 35 36 37 38 38 38 37 37 37 37
29 28 28 27 27 27 27 27 29 30 30 29 27 28 28 28 29 29 29 30 31 32 32 32 32 33 34 35 35 36 36 37 37 37 38 39 39 38 38 38 38 38 38
29 29 29 28 28 28 28 28 29 30 31 30 29 29 29 30 30 31 31 32 32 32 33 33 34 35 35 36 36 36 36 37 38 38 39 39 39 39 39 39 39 40 39
28 29 28 27 28 28 29 29 30 30 31 31 30 29 30 31 31 32 33 33 34 34 33 35 35 35 36 36 36 36 37 38 38 38 38 38 39 39 40 40 39 39 39
28 28 28 28 28 29 30 30 32 32 32 32 31 30 30 31 32 33 33 34 34 34 34 34 35 35 35 36 36 37 37 37 37 38 38 39 39 39 40 40 40 40 40
27 27 28 29 30 31 31 32 32 32 32 31 31 31 31 32 33 34 34 34 34 34 35 35 35 35 35 35 35 36 37 38 38 39 39 40 40 40 39 39 39 39 39
Wind_Direction
48 53 56 54 51 51 55 61 65 69 74 79 85 91 98 96 101 108 110 112 120 133 148 153 154 167 184 209 218 216 219 220 223 233 237 245 248 251 251 252 255 259 261
49 52 54 53 53 52 55 60 63 66 72 77 79 85 92 91 87 89 99 113 120 119 123 134 146 152 162 182 203 209 218 215 233 245 248 253 251 249 250 257 259 259 266
49 54 55 51 54 56 57 60 61 64 70 72 75 83 89 91 90 90 93 99 111 111 120 126 135 147 141 154 189 206 213 233 253 258 257 251 253 255 254 256 259 265 272
42 49 53 51 53 55 55 57 60 62 67 69 72 78 81 82 88 93 98 100 101 109 118 124 127 146 157 166 186 222 238 248 259 267 264 262 259 255 257 261 265 268 271
23 36 41 48 47 50 51 53 57 62 66 65 67 69 73 77 89 106 112 114 108 120 140 146 151 194 212 217 225 242 252 259 268 274 272 276 271 268 269 270 273 276 276
334 12 23 27 31 39 39 40 47 57 60 58 57 55 54 56 67 107 140 149 153 159 194 207 244 253 248 247 246 253 260 268 275 283 285 278 280 283 282 282 282 282 281
297 317 349 352 1 18 25 22 23 43 50 42 33 24 27 27 23 234 212 227 233 242 253 250 254 256 260 256 258 268 271 274 276 281 287 285 284 286 285 284 283 283 283
284 293 300 307 308 322 336 342 346 348 7 7 359 355 357 357 353 302 252 260 260 263 261 255 255 263 271 272 271 281 281 283 282 283 288 287 288 290 286 285 284 285 285
277 287 282 281 280 284 289 303 304 291 305 321 324 319 321 318 310 294 286 279 277 272 267 262 261 261 266 272 275 278 281 284 285 286 287 289 286 291 293 290 286 283 281
269 272 270 271 273 274 277 284 297 290 295 294 296 291 291 295 296 298 301 291 283 279 274 269 262 263 269 274 274 276 279 282 285 287 289 291 291 293 292 292 292 285 280
263 264 262 266 270 271 277 284 283 283 288 291 291 292 294 294 291 287 290 291 286 282 281 274 268 267 271 276 279 280 281 283 286 285 286 287 288 290 290 290 291 289 282
258 257 260 263 265 271 275 280 281 280 282 285 286 285 285 285 284 283 284 287 287 283 280 278 275 271 272 276 279 280 283 283 284 285 286 287 288 289 290 290 289 287 285
262 262 262 265 266 269 274 276 279 277 276 280 283 283 282 280 279 278 279 282 284 285 284 284 281 278 277 277 278 278 279 280 282 283 284 285 287 288 290 290 288 288 286
267 265 265 266 268 269 272 272 276 275 274 277 278 278 278 279 280 279 278 279 281 283 285 282 280 278 277 277 277 276 277 279 281 282 284 285 286 287 288 289 288 287 286
266 267 266 266 265 267 268 269 270 271 273 275 276 274 275 276 277 278 277 278 280 281 283 281 280 279 278 278 277 277 277 277 279 280 282 283 284 285 287 288 288 286 286
264 266 266 264 264 266 265 267 270 272 274 273 274 272 272 272 274 275 277 278 278 280 280 277 277 276 276 276 277 278 278 279 280 281 281 282 282 283 285 286 285 284 285
260 263 265 263 263 264 263 265 268 271 273 271 269 270 272 272 272 275 276 277 277 277 278 280 278 276 274 274 275 277 277 278 278 280 281 281 282 282 283 284 285 285 285
260 259 261 262 263 263 263 265 266 266 267 270 270 272 274 276 274 274 275 275 275 276 278 278 277 275 275 276 276 278 278 280 280 279 281 282 282 283 283 283 284 285 285
262 262 262 263 264 265 267 266 267 265 266 268 270 272 274 275 276 276 276 276 275 274 276 277 276 276 276 276 278 279 280 279 280 281 282 283 282 282 282 283 283 284 283
262 263 265 264 263 264 265 266 267 266 266 267 270 272 275 277 279 279 278 278 278 277 277 277 276 276 276 277 277 279 280 280 280 280 281 281 281 281 282 283 283 284 283
261 262 263 264 265 266 268 268 267 268 268 270 272 272 274 276 278 279 279 280 280 279 279 279 278 278 279 279 279 280 279 279 280 280 280 280 280 280 281 281 281 282 282
262 262 263 263 264 266 268 269 269 269 270 272 274 275 276 277 279 280 281 282 282 281 280 280 280 279 280 280 280 280 280 280 281 280 280 280 280 279 279 280 280 280 281
260 261 263 264 264 266 267 268 270 273 275 276 277 277 277 279 280 282 282 282 284 283 281 281 281 280 280 280 280 280 280 281 282 282 281 281 280 279 279 279 279 279 281
259 260 261 263 264 266 268 269 272 275 279 278 278 278 278 280 281 281 283 283 284 282 282 283 282 281 279 279 280 280 281 281 282 282 281 281 281 280 281 280 278 278 279
260 261 261 263 265 266 269 270 273 276 278 278 276 276 278 280 281 283 284 285 284 283 283 283 283 283 282 280 280 280 281 281 281 281 282 282 282 281 281 281 279 278 278
261 261 262 264 267 270 272 272 274 276 277 276 275 276 278 280 281 283 285 286 286 285 285 284 284 284 283 283 283 284 284 283 282 282 282 282 281 282 281 280 280 278 278
Height
5886 5884 5883 5882 5881 5880 5879 5878 5878 5878 5878 5877 5877 5878 5878 5878 5879 5879 5880 5880 5880 5881 5881 5882 5883 5883 5884 5884 5885 5886 5886 5886 5887 5887 5887 5888 5888 5888 5888 5888 5889 5889 5889
5887 5886 5885 5884 5883 5882 5881 5880 5880 5879 5879 5879 5879 5879 5879 5880 5880 5880 5881 5881 5881 5882 5882 5883 5883 5884 5884 5884 5885 5885 5886 5886 5886 5887 5887 5887 5887 5887 5887 5887 5887 5888 5887
5888 5887 5887 5886 5885 5884 5883 5882 5882 5881 5881 5881 5880 5880 5881 5881 5881 5881 5882 5882 5882 5882 5883 5883 5884 5884 5884 5885 5885 5885 5886 5886 5886 5886 5886 5886 5886 5886 5886 5886 5886 5886 5886
5889 5888 5888 5887 5886 5886 5885 5884 5883 5883 5883 5882 5882 5882 5882 5882 5882 5882 5882 5883 5883 5883 5883 5884 5884 5884 5885 5885 5885 5885 5885 5886 5886 5885 5885 5885 5885 5885 5885 5885 5885 5885 5884
5890 5889 5888 5888 5887 5887 5886 5885 5885 5884 5884 5884 5884 5883 5883 5883 5883 5883 5883 5883 5883 5883 5884 5884 5884 5885 5885 5885 5885 5885 5885 5885 5885 5885 5884 5884 5884 5883 5884 5883 5883 5883 5883
5890 5889 5889 5888 5888 5887 5887 5886 5886 5885 5885 5885 5885 5884 5884 5883 5883 5883 5883 5883 5883 5883 5884 5884 5884 5884 5884 5884 5884 5884 5884 5884 5884 5884 5883 5883 5883 5882 5882 5882 5881 5881 5880
5890 5890 5889 5889 5888 5887 5887 5887 5886 5886 5885 5885 5885 5885 5884 5884 5883 5883 5883 5883 5883 5883 5883 5883 5883 5883 5884 5884 5884 5883 5883 5883 5883 5882 5882 5881 5881 5880 5880 5880 5879 5879 5878
5890 5889 5889 5888 5888 5887 5887 5887 5886 5886 5885 5885 5885 5885 5884 5884 5883 5883 5882 5883 5883 5883 5883 5882 5882 5882 5882 5882 5882 5882 5882 5881 5881 5881 5880 5880 5879 5878 5877 5877 5876 5876 5875
5888 5888 5887 5888 5887 5887 5886 5886 5885 5885 5885 5885 5884 5884 5884 5883 5883 5882 5882 5882 5882 5881 5881 5881 5881 5881 5881 5881 5881 5881 5880 5880 5879 5879 5878 5877 5876 5876 5875 5874 5873 5873 5872
5886 5886 5886 5886 5886 5886 5885 5885 5885 5885 5884 5884 5884 5883 5883 5883 5882 5882 5881 5881 5880 5880 5879 5879 5879 5879 5879 5879 5879 5879 5878 5878 5877 5876 5876 5875 5873 5873 5872 5871 5870 5869 5868
5883 5884 5884 5884 5884 5884 5884 5883 5883 5883 5883 5883 5882 5882 5882 5881 5881 5880 5880 5879 5879 5878 5877 5877 5877 5877 5877 5876 5876 5876 5875 5875 5874 5873 5872 5871 5870 5869 5868 5867 5866 5864 5864
5880 5881 5881 5881 5882 5882 5882 5881 5881 5881 5881 5881 5880 5880 5880 5879 5879 5878 5878 5877 5877 5876 5875 5875 5874 5874 5874 5873 5873 5872 5872 5871 5870 5869 5869 5868 5866 5865 5864 5862 5861 5860 5859
5877 5878 5878 5879 5879 5879 5879 5879 5879 5878 5878 5878 5878 5877 5877 5876 5876 5875 5875 5874 5873 5873 5872 5871 5871 5870 5870 5869 5869 5868 5868 5867 5866 5865 5864 5863 5862 5860 5859 5858 5856 5855 5854
5874 5874 5875 5875 5875 5876 5876 5875 5875 5875 5875 5875 5874 5874 5873 5873 5872 5871 5871 5870 5870 5869 5869 5868 5867 5866 5865 5865 5864 5863 5863 5862 5861 5860 5859 5858 5856 5855 5854 5852 5851 5850 5848
5870 5870 5870 5871 5871 5872 5871 5871 5871 5871 5871 5870 5870 5870 5869 5868 5868 5867 5867 5866 5866 5865 5864 5863 5862 5861 5860 5859 5859 5858 5857 5856 5855 5855 5853 5852 5851 5849 5848 5847 5845 5844 5842
5865 5865 5865 5865 5866 5867 5867 5866 5866 5866 5866 5865 5865 5864 5864 5863 5863 5862 5862 5861 5861 5860 5859 5857 5856 5856 5855 5854 5853 5852 5851 5850 5849 5848 5847 5846 5844 5843 5842 5840 5839 5837 5836
5860 5860 5860 5860 5860 5861 5861 5861 5861 5861 5860 5859 5858 5858 5858 5857 5857 5856 5855 5855 5854 5853 5852 5851 5850 5849 5848 5847 5846 5845 5844 5843 5842 5840 5839 5838 5837 5836 5835 5833 5832 5830 5829
5853 5854 5854 5854 5854 5854 5854 5854 5854 5854 5854 5853 5852 5852 5852 5851 5850 5849 5849 5848 5847 5846 5845 5844 5843 5842 5841 5840 5839 5838 5836 5835 5833 5832 5831 5830 5829 5828 5826 5825 5824 5823 5821
5847 5847 5848 5848 5847 5847 5847 5847 5847 5847 5847 5846 5845 5845 5845 5844 5842 5842 5841 5840 5839 5838 5837 5836 5835 5834 5833 5832 5831 5829 5828 5827 5826 5825 5823 5822 5821 5820 5818 5816 5815 5814 5813
5839 5840 5840 5840 5840 5840 5840 5840 5840 5840 5840 5839 5838 5838 5837 5836 5835 5834 5833 5832 5830 5829 5827 5827 5826 5825 5824 5823 5821 5820 5819 5818 5817 5815 5814 5812 5811 5810 5808 5806 5805 5804 5803
5831 5832 5832 5833 5833 5833 5833 5833 5833 5833 5833 5831 5830 5830 5829 5828 5827 5826 5825 5824 5822 5821 5820 5818 5817 5816 5814 5813 5812 5810 5809 5807 5806 5805 5804 5802 5800 5799 5797 5796 5795 5793 5792
5823 5823 5824 5825 5825 5826 5826 5825 5825 5825 5824 5823 5822 5822 5821 5820 5819 5818 5816 5815 5814 5812 5811 5809 5808 5806 5805 5803 5802 5800 5798 5797 5795 5794 5793 5791 5789 5788 5786 5785 5784 5782 5781
5815 5815 5816 5817 5817 5818 5818 5818 5817 5816 5815 5815 5814 5813 5813 5812 5810 5809 5808 5806 5805 5803 5801 5800 5798 5796 5795 5793 5791 5789 5787 5785 5784 5782 5781 5779 5777 5776 5775 5773 5772 5771 5769
5806 5807 5807 5808 5809 5809 5809 5809 5808 5807 5806 5806 5805 5805 5804 5803 5801 5800 5798 5797 5795 5793 5792 5790 5788 5786 5784 5782 5780 5778 5776 5774 5772 5770 5768 5767 5765 5764 5763 5761 5760 5759 5758
5797 5797 5798 5799 5800 5800 5800 5800 5799 5798 5798 5797 5796 5796 5795 5793 5792 5790 5788 5786 5784 5783 5781 5779 5777 5775 5774 5771 5769 5767 5765 5763 5761 5759 5757 5755 5754 5752 5751 5750 5748 5747 5745
5789 5789 5790 5791 5791 5792 5791 5791 5790 5789 5789 5787 5787 5786 5785 5784 5782 5780 5778 5776 5774 5772 5770 5769 5767 5765 5763 5761 5758 5756 5754 5751 5749 5748 5746 5744 5742 5741 5739 5738 5736 5734 5733